Date String (YYYY-MM-DD hh:mm:ss) UTC,Instrument flags,absolute air pressure of the measurement (hPa),sample flow rate (lpm),inlet stack bypass flow (lpm),air temperature of the measurement (°C),ambient temperature measured by the external sensor (°C),aerosol sample conditioner tube jacket temperature (°C),OPC LED temperature (°C),internal box temperature (°C),relative humidity of the measurement (%),span deviation,mass concentration of particles derived from Lorenz-Mie calculation of OPC scattering (μg/m³),mass concentration of particles derived from Lorenz-Mie calculation of OPC scattering (μg/m³),mass concentration of particles derived from Lorenz-Mie calculation of OPC scattering (μg/m³)
DateTimeUTC,F1_M11,P_M11,Q1_M11,Q2_M11,T1_M11,T2_M11,T3_M11,T4_M11,T5_M11,U1_M11,ZSPAN_M11,X2_M11,X0_M11,X1_M11
2023-07-05 09:00:00,SystemResetWarning,0837.0,5.00,000.00,030.0,028.8,000.0,038.5,031.6,30.3,-001.4,0004.18,0007.65,0003.86
2023-07-05 09:01:00,SystemResetWarning,0837.0,5.00,000.00,030.0,028.8,000.0,038.5,031.6,30.0,-001.2,0004.17,0007.86,0003.88
2023-07-05 09:02:00,SystemResetWarning,0837.0,5.00,000.00,030.0,028.8,000.0,038.5,031.6,30.1,-001.0,0004.21,0007.91,0003.90
2023-07-05 09:03:00,SystemResetWarning,0837.0,5.00,000.00,030.1,028.9,000.0,038.6,031.7,30.4,-000.1,0004.23,0007.94,0003.91
2023-07-05 09:04:00,SystemResetWarning,0836.9,5.00,000.00,030.1,028.9,000.0,038.6,031.7,30.5,0000.7,0004.24,0007.90,0003.94
2023-07-05 09:05:00,SystemResetWarning,0836.8,5.00,000.00,030.1,028.9,000.0,038.6,031.7,30.6,0000.5,0004.26,0007.92,0003.95
2023-07-05 09:06:00,SystemResetWarning,0836.7,5.00,000.00,030.1,028.9,000.0,038.6,031.7,30.5,0000.3,0004.26,0007.93,0003.96
2023-07-05 09:07:00,SystemResetWarning,0836.6,5.00,000.00,030.1,028.9,000.0,038.6,031.7,30.3,-000.2,0004.23,0007.82,0003.95
2023-07-05 09:08:00,SystemResetWarning,0836.5,4.99,000.00,030.1,028.9,000.0,038.6,031.7,30.1,0000.0,0004.22,0007.76,0003.94
2023-07-05 09:09:00,SystemResetWarning,0836.3,4.99,000.00,030.2,028.9,000.0,038.6,031.7,29.8,-000.5,0004.20,0007.70,0003.93
2023-07-05 09:10:00,SystemResetWarning,0836.3,5.00,000.00,030.2,028.9,000.0,038.7,031.7,29.7,0000.4,0004.17,0007.55,0003.92
2023-07-05 09:11:00,SystemResetWarning,0836.2,4.99,000.00,030.2,028.2,000.0,038.6,031.7,29.9,0001.4,0004.13,0006.25,0003.90
2023-07-05 09:12:00,SystemResetWarning,0836.2,5.01,000.00,030.1,026.1,000.0,038.5,031.4,29.9,-000.1,0004.12,0005.95,0003.90
2023-07-05 09:13:00,SystemResetWarning,0836.2,5.01,000.00,030.0,025.2,000.0,038.4,031.1,30.3,-001.1,0004.12,0005.93,0003.89
2023-07-05 09:14:00,SystemResetWarning,0836.2,5.01,000.00,029.8,025.2,000.0,038.4,030.8,30.7,-001.9,0004.12,0005.89,0003.89
2023-07-05 09:15:00,SystemResetWarning,0836.2,5.00,000.00,029.7,025.6,000.0,038.4,030.8,30.8,-000.1,0004.09,0005.80,0003.88
2023-07-05 09:16:00,SystemResetWarning,0836.2,5.00,000.00,029.6,026.0,000.0,038.4,030.8,30.9,-001.6,0004.08,0005.81,0003.88
2023-07-05 09:17:00,SystemResetWarning,0836.2,4.99,000.00,029.6,026.4,000.0,038.4,030.9,30.9,-003.3,0004.10,0005.92,0003.89
2023-07-05 09:18:00,SystemResetWarning,0836.2,5.01,000.00,029.6,026.8,000.0,038.3,030.9,31.0,-003.8,0004.13,0006.19,0003.91
2023-07-05 09:19:00,SystemResetWarning,0836.2,5.00,000.00,029.6,027.1,000.0,038.3,031.0,30.8,-003.8,0004.16,0006.33,0003.94
2023-07-05 09:20:00,SystemResetWarning,0836.2,5.00,000.00,029.6,027.3,000.0,038.3,031.0,30.8,-003.1,0004.19,0006.40,0003.97
2023-07-05 09:21:00,SystemResetWarning,0836.2,5.00,000.00,029.6,027.5,000.0,038.3,031.0,30.9,-003.0,0004.23,0006.61,0004.00
2023-07-05 09:22:00,SystemResetWarning,0836.2,4.99,000.00,029.6,027.7,000.0,038.3,031.1,31.0,-002.8,0004.28,0006.89,0004.03
2023-07-05 09:23:00,SystemResetWarning,0836.2,5.00,000.00,029.6,027.8,000.0,038.3,031.1,31.0,-001.9,0004.32,0007.09,0004.05
2023-07-05 09:24:00,SystemResetWarning,0836.2,5.00,000.00,029.6,027.9,000.0,038.3,031.1,31.0,-001.4,0004.36,0007.23,0004.08
2023-07-05 09:25:00,SystemResetWarning,0836.1,5.00,000.00,029.6,028.0,000.0,038.2,031.1,31.0,-001.4,0004.41,0007.38,0004.12
2023-07-05 09:26:00,SystemResetWarning,0836.1,5.00,000.00,029.6,028.0,000.0,038.2,031.1,30.9,-001.0,0004.48,0007.54,0004.17
2023-07-05 09:27:00,SystemResetWarning,0836.1,5.00,000.00,029.6,028.0,000.0,038.2,031.1,30.8,-000.4,0004.55,0007.77,0004.22
2023-07-05 09:28:00,SystemResetWarning,0836.1,5.00,000.00,029.6,028.0,000.0,038.2,031.1,30.8,-001.0,0004.59,0007.88,0004.26
2023-07-05 09:29:00,SystemResetWarning,0836.0,5.01,000.00,029.6,027.9,000.0,038.2,031.1,30.9,-000.7,0004.62,0007.83,0004.29
2023-07-05 09:30:00,SystemResetWarning,0836.0,4.99,000.00,029.6,027.9,000.0,038.2,031.1,30.8,-000.7,0004.67,0007.87,0004.33
2023-07-05 09:31:00,SystemResetWarning,0836.1,4.99,000.00,029.6,027.9,000.0,038.2,031.1,30.9,-001.1,0004.70,0007.87,0004.37
2023-07-05 09:32:00,SystemResetWarning,0836.1,5.01,000.00,029.6,027.9,000.0,038.2,031.1,30.9,-001.1,0004.74,0007.84,0004.40
2023-07-05 09:33:00,SystemResetWarning,0836.2,5.00,000.00,029.6,027.9,000.0,038.2,031.1,30.9,-001.1,0004.76,0007.78,0004.46
2023-07-05 09:34:00,SystemResetWarning,0836.2,5.01,000.00,029.6,027.9,000.0,038.2,031.1,31.0,-001.1,0004.79,0007.71,0004.51
2023-07-05 09:35:00,SystemResetWarning,0836.2,4.99,000.00,029.6,027.9,000.0,038.2,031.1,31.0,-001.4,0004.82,0007.73,0004.55
2023-07-05 09:36:00,SystemResetWarning,0836.2,4.99,000.00,029.6,028.0,000.0,038.2,031.1,31.0,-001.0,0004.85,0007.73,0004.59
2023-07-05 09:37:00,SystemResetWarning,0836.1,4.99,000.00,029.6,028.0,000.0,038.2,031.1,31.0,-000.6,0004.86,0007.68,0004.60
2023-07-05 09:38:00,SystemResetWarning,0836.1,5.00,000.00,029.6,028.0,000.0,038.2,031.1,31.0,-001.1,0004.88,0007.54,0004.62
2023-07-05 09:39:00,SystemResetWarning,0835.9,5.00,000.00,029.6,028.0,000.0,038.2,031.1,31.0,-000.7,0004.91,0007.46,0004.64
2023-07-05 09:40:00,SystemResetWarning,0836.0,5.00,000.00,029.6,028.0,000.0,038.2,031.1,31.0,-000.6,0004.96,0007.62,0004.66
2023-07-05 09:41:00,SystemResetWarning,0836.0,5.01,000.00,029.6,028.1,000.0,038.2,031.1,31.0,-000.9,0005.00,0007.69,0004.66
2023-07-05 09:42:00,SystemResetWarning,0836.1,5.01,000.00,029.6,028.1,000.0,038.2,031.1,31.0,-000.3,0005.01,0007.75,0004.66
2023-07-05 09:43:00,SystemResetWarning,0836.1,5.00,000.00,029.6,028.0,000.0,038.2,031.1,31.0,-000.1,0005.01,0007.78,0004.66
2023-07-05 09:44:00,SystemResetWarning,0836.1,4.99,000.00,029.6,028.0,000.0,038.2,031.1,31.0,-000.7,0005.03,0007.82,0004.65
2023-07-05 09:45:00,SystemResetWarning,0836.1,4.99,000.00,029.6,028.0,000.0,038.2,031.1,31.0,-001.8,0005.03,0008.20,0004.63
2023-07-05 09:46:00,SystemResetWarning,0836.1,5.00,000.00,029.6,028.0,000.0,038.2,031.1,31.0,-001.5,0005.01,0008.28,0004.61
2023-07-05 09:47:00,SystemResetWarning,0836.1,5.00,000.00,029.6,027.9,000.0,038.2,031.1,31.0,-001.3,0005.00,0008.26,0004.60
2023-07-05 09:48:00,SystemResetWarning,0836.1,5.00,000.00,029.6,027.9,000.0,038.2,031.1,31.0,-002.0,0004.99,0008.30,0004.58
2023-07-05 09:49:00,SystemResetWarning,0836.0,5.01,000.00,029.5,027.9,000.0,038.2,031.1,31.1,-001.6,0004.97,0008.30,0004.57
2023-07-05 09:50:00,SystemResetWarning,0836.0,5.01,000.00,029.6,028.0,000.0,038.2,031.1,31.1,-001.7,0004.95,0008.25,0004.55
2023-07-05 09:51:00,SystemResetWarning,0835.9,5.00,000.00,029.6,028.0,000.0,038.2,031.1,31.1,-002.6,0004.89,0008.10,0004.53
2023-07-05 09:52:00,SystemResetWarning,0835.9,5.00,000.00,029.5,028.0,000.0,038.2,031.1,31.1,-002.8,0004.85,0008.01,0004.51
2023-07-05 09:53:00,SystemResetWarning,0835.9,5.00,000.00,029.5,028.0,000.0,038.2,031.1,31.2,-003.0,0004.84,0008.01,0004.51
2023-07-05 09:54:00,SystemResetWarning,0835.8,5.00,000.00,029.5,028.0,000.0,038.2,031.1,31.2,-003.4,0004.84,0008.01,0004.49
2023-07-05 09:55:00,SystemResetWarning,0835.8,4.99,000.00,029.6,028.0,000.0,038.2,031.1,31.2,-002.7,0004.82,0007.99,0004.47
2023-07-05 09:56:00,SystemResetWarning,0835.8,4.99,000.00,029.6,028.0,000.0,038.2,031.1,31.3,-002.0,0004.82,0007.71,0004.48
2023-07-05 09:57:00,SystemResetWarning,0835.7,5.01,000.00,029.5,028.0,000.0,038.2,031.1,31.3,-001.6,0004.83,0007.58,0004.48
2023-07-05 09:58:00,SystemResetWarning,0835.8,5.01,000.00,029.6,028.0,000.0,038.2,031.1,31.3,-002.3,0004.82,0007.61,0004.48
2023-07-05 09:59:00,SystemResetWarning,0835.8,5.01,000.00,029.6,028.0,000.0,038.2,031.1,31.4,-001.8,0004.83,0007.64,0004.49
